Chillicothe, MO

9:53 PM CDT on September 20, 2017 (GMT -0500)
Chillicothe

Weather History for KCDJ - November, 2012

Change the Weather History Date:

Monday, November 5, 2012

  Actual Average (KIRK) Record (KIRK)
Temperature  
Mean Temperature 42 °F -  
Max Temperature 44 °F 51 °F 77 °F (1924)
Min Temperature 41 °F 33 °F 16 °F (1951)
Degree Days  
Heating Degree Days 22    
Moisture  
Dew Point 39 °F    
Average Humidity 88    
Maximum Humidity 93    
Minimum Humidity 82    
Precipitation  
Precipitation 0.22 in - - ()
Sea Level Pressure  
Sea Level Pressure 30.09 in    
Wind  
Wind Speed 7 mph (ENE)    
Max Wind Speed 9 mph    
Max Gust Speed 16 mph    
Averages and records for this station are not official NWS values.
T = Trace of Precipitation, MM = Missing Value Source: NWS Daily Summary

Daily Weather History Graph

Daily Weather History Graph

Search for Another Location

Airport or City:

Trip Planner

Search our weather history database for the weather conditions in past years. The results will help you decide how hot, cold, wet, or windy it might be!

Date:

Astronomy

Nov. 05, 2012 Rise Set
Actual Time 6:48 AM CST 5:07 PM CST
Civil Twilight 6:19 AM CST 5:35 PM CST
Nautical Twilight 5:47 AM CST 6:07 PM CST
Astronomical Twilight 5:16 AM CST 6:39 PM CST
Moon 10:45 PM CST (11/5) 12:07 PM CST (11/5)
Length of Visible Light 11h 15m
Length of Day
10h 18m
Waning Gibbous, 62% of the Moon is Illuminated
Nov 5
Waning Gibbous
Nov 6
Last Quarter
Nov 13
New
Nov 20
First Quarter
Nov 28
Full

Hourly Weather History & Observations

Time (CST) Temp. Windchill Dew Point Humidity Pressure Visibility Wind Dir Wind Speed Gust Speed Precip Events Conditions
12:52 AM 44.1 °F 40.1 °F 39.9 °F 85% 30.06 in - SE 6.9 mph - 0.03 in   Unknown
1:52 AM 43.0 °F 37.7 °F 39.9 °F 89% 30.05 in - SE 9.2 mph - 0.04 in   Unknown
2:52 AM 43.0 °F 38.2 °F 39.9 °F 89% 30.03 in - SE 8.1 mph - 0.01 in   Unknown
3:52 AM 43.0 °F 38.8 °F 39.9 °F 89% 30.02 in - ESE 6.9 mph - 0.03 in   Unknown
4:52 AM 43.0 °F 39.5 °F 39.9 °F 89% 30.02 in - ESE 5.8 mph - 0.05 in   Unknown
5:52 AM 43.0 °F 40.3 °F 39.9 °F 89% 30.02 in - East 4.6 mph - 0.04 in   Unknown
6:52 AM 42.1 °F 38.4 °F 39.9 °F 92% 30.02 in - Variable 5.8 mph - 0.01 in   Unknown
7:52 AM 42.1 °F 39.2 °F 39.9 °F 92% 30.04 in - ENE 4.6 mph - N/A   Unknown
8:52 AM 42.1 °F 37.1 °F 39.9 °F 92% 30.06 in - ENE 8.1 mph - N/A   Unknown
9:52 AM 43.0 °F 38.8 °F 39.9 °F 89% 30.07 in - ENE 6.9 mph - N/A   Unknown
10:52 AM 43.0 °F 38.8 °F 39.0 °F 86% 30.09 in - ENE 6.9 mph 16.1 mph N/A   Unknown
11:52 AM 43.0 °F 39.5 °F 39.9 °F 89% 30.09 in - Variable 5.8 mph - 0.01 in   Unknown
12:52 PM 42.1 °F 36.6 °F 39.9 °F 92% 30.09 in - NE 9.2 mph - N/A   Unknown
1:52 PM 43.0 °F 38.2 °F 39.0 °F 86% 30.10 in - NE 8.1 mph - N/A   Unknown
2:52 PM 43.0 °F 37.7 °F 39.0 °F 86% 30.11 in - NE 9.2 mph - N/A   Unknown
3:52 PM 43.0 °F 38.8 °F 39.0 °F 86% 30.12 in - Variable 6.9 mph - N/A   Unknown
4:52 PM 43.0 °F 39.5 °F 37.9 °F 82% 30.13 in - NNE 5.8 mph - N/A   Unknown
5:52 PM 43.0 °F 38.2 °F 37.9 °F 82% 30.15 in - NNE 8.1 mph - N/A   Unknown
6:52 PM 43.0 °F 40.3 °F 39.0 °F 86% 30.17 in - Variable 4.6 mph - N/A   Unknown
7:52 PM 42.1 °F 37.7 °F 39.0 °F 89% 30.16 in - NE 6.9 mph - N/A   Unknown
8:52 PM 42.1 °F 39.2 °F 39.0 °F 89% 30.15 in - ENE 4.6 mph - N/A   Unknown
9:52 PM 41.0 °F 39.0 °F 39.0 °F 93% 30.14 in - East 3.5 mph - N/A   Unknown
10:52 PM 42.1 °F - 39.0 °F 89% 30.15 in - Calm Calm - N/A   Unknown
11:52 PM 42.1 °F - 39.0 °F 89% 30.14 in - Calm Calm - N/A   Unknown